User: anonymous
Location: The C. Gantt Observatory
(33.6981°N, 81.6836°W)
Time: 15:03:50
(UTC-04:00)
Language:

Iridium 30 - Orbit

View from above orbital plane
View from above orbital plane
View from above satellite
View from above satellite

Ground track
Ground track

The orbit data is extracted from the following two-line orbital elements,

1 24949U 97051F   14107.38239102  .00000543  00000-0  18696-3 0  8322
2 24949 086.3986 050.7281 0002182 102.2336 257.9105 14.34218631868591
Epoch (UTC): 17 April 2014 09:10:38
Eccentricity: 0.0002182
inclination: 86.3986°
perigee height: 776 km
apogee height: 779 km
right ascension of ascending node: 50.7281°
argument of perigee: 102.2336°
revolutions per day: 14.34218631
mean anomaly at epoch: 257.9105°
orbit number at epoch: 86859

The dashed part of the orbit path shows where the satellite is in the earth's shadow,  

DLR